Theta_e
283 278 278 279 278 279 280 280 280 280 281 280 279 278 279 279 279 281 281 282 283 282 281 281 281 282 283 285 286 288 288 287 286 286 287 287 288 289 289 290 290 291 292 295 294 294 294 294 295 297 298 301 304 306 308 309 310 309 308 305 302 302 300 299 298 298 297 296 295 295 294 293 293 294 295 296 296 297 297 297 297 296 297 296 295 295
280 277 279 278 280 280 280 278 281 281 279 281 279 278 278 277 276 280 280 281 282 282 280 283 281 282 283 285 286 287 285 285 286 286 286 287 288 289 289 289 290 292 293 293 293 294 293 293 295 298 301 305 307 309 311 310 308 307 305 304 302 301 301 300 299 298 298 297 296 295 294 294 293 294 294 294 295 296 297 297 297 297 296 295 295 295
276 278 281 280 281 280 279 280 280 282 281 278 278 276 275 276 276 280 279 281 282 282 281 280 279 282 283 284 285 284 285 286 287 286 287 287 288 289 290 290 290 291 292 292 293 293 293 293 296 301 306 309 309 309 310 310 307 306 304 303 301 301 301 300 300 299 298 297 298 297 295 295 294 296 296 295 296 296 296 297 297 297 296 295 294 294
277 278 278 281 280 283 280 278 279 277 276 277 276 275 274 276 277 276 280 281 283 282 279 280 279 281 282 281 282 284 284 285 286 287 287 288 289 289 290 291 291 290 291 291 292 292 292 293 297 302 308 310 310 308 309 308 306 305 305 303 301 300 301 300 300 299 298 298 298 297 296 296 295 294 295 295 295 295 295 295 296 296 296 295 295 294
278 281 280 280 281 283 283 279 279 277 277 276 277 276 275 275 276 276 279 281 283 279 281 281 279 277 277 280 281 283 283 284 287 287 288 289 289 290 290 290 290 290 291 291 292 292 293 294 298 302 309 311 308 307 307 306 306 305 304 302 301 300 300 300 300 298 298 297 296 295 295 295 294 294 293 292 292 293 295 294 294 295 296 296 294 295
279 280 282 282 279 278 280 278 275 278 277 277 277 279 278 279 277 278 279 280 278 273 279 279 273 269 276 278 280 283 283 286 287 286 288 290 290 290 290 291 291 291 291 291 292 292 292 293 296 302 309 309 308 307 306 307 306 305 303 301 300 300 300 299 299 298 297 296 294 293 292 290 291 290 290 290 290 291 292 292 294 294 295 295 295 293
281 281 282 282 279 276 276 275 275 278 275 275 278 278 279 278 278 278 278 278 272 270 277 280 272 272 277 279 279 281 281 284 286 285 287 288 290 290 291 291 291 291 291 291 291 292 292 293 297 301 307 308 307 307 307 306 306 305 303 302 301 300 299 299 298 298 297 295 295 294 293 293 292 291 291 293 293 292 293 293 292 293 294 294 294 293
282 282 279 277 277 275 272 275 277 276 275 276 278 279 280 280 279 279 277 278 278 279 279 276 274 272 274 279 280 280 281 282 283 285 286 288 289 290 291 291 291 291 291 291 292 292 293 293 297 301 308 309 308 307 306 305 305 304 302 301 300 300 299 298 298 297 297 296 295 295 295 294 293 292 292 293 293 293 293 292 292 292 293 294 294 294
282 280 278 277 272 270 274 275 279 279 280 279 279 280 280 280 280 278 277 278 278 275 271 273 275 271 272 279 281 280 280 281 281 283 285 288 289 291 291 292 292 292 292 292 292 292 293 293 297 302 308 310 308 306 305 305 304 303 301 301 300 300 299 298 298 297 297 297 296 296 295 294 295 294 293 293 293 292 292 291 291 292 292 293 293 293
280 281 277 275 275 273 273 275 278 280 278 280 281 282 281 279 279 280 278 275 273 272 265 270 277 270 273 276 279 278 279 280 283 284 286 289 291 291 291 291 292 292 292 292 292 294 295 295 296 303 309 309 307 306 305 305 304 302 301 300 299 299 299 298 297 298 297 297 297 296 295 295 294 294 293 292 291 291 291 290 290 291 291 292 292 293
280 281 279 279 276 276 274 277 278 279 282 282 280 278 278 275 276 276 275 274 267 265 265 272 275 273 269 275 278 279 283 284 284 285 288 291 291 292 292 291 292 292 292 292 294 296 296 296 296 303 308 308 307 305 305 304 302 301 300 299 299 298 298 298 297 297 297 297 297 296 296 295 294 293 292 291 290 290 290 289 290 290 290 291 291 292
278 279 278 279 281 278 282 282 279 279 279 280 275 274 274 268 272 269 261 262 266 263 264 274 276 274 267 274 278 281 284 285 285 285 288 290 290 291 291 292 293 293 293 293 295 296 296 295 297 304 307 306 305 304 303 302 301 300 300 299 298 298 297 297 297 297 297 297 297 297 297 296 295 293 292 291 290 290 290 290 289 290 290 290 291 291
277 277 279 281 284 284 280 280 277 278 279 281 278 276 271 265 266 266 263 268 262 268 272 272 274 270 270 277 283 284 284 285 287 289 290 290 290 290 291 292 293 294 293 293 295 295 295 295 299 304 304 304 303 302 302 301 300 300 299 299 298 297 297 297 297 296 297 297 297 297 297 296 295 294 293 292 291 291 290 290 289 289 288 289 289 290
271 274 277 281 281 285 282 276 276 273 275 280 275 270 267 266 261 260 261 260 266 269 268 267 271 272 277 280 281 283 285 288 289 291 292 292 290 291 291 292 293 294 293 294 295 295 294 296 301 304 303 302 302 302 301 300 299 299 299 298 298 297 297 297 297 297 296 296 297 298 298 297 296 294 294 293 292 292 292 291 290 289 289 289 289 289
269 270 278 278 278 282 281 281 280 278 277 275 275 274 267 263 264 264 261 264 266 271 274 271 270 269 274 280 284 286 287 289 291 292 292 292 291 291 292 292 293 294 295 295 296 296 296 299 304 303 303 302 302 301 300 299 299 298 298 298 297 296 297 296 296 297 296 296 297 298 298 297 296 295 295 294 294 293 292 292 291 291 290 290 290 290
272 272 278 279 280 282 281 282 279 275 275 277 277 274 270 268 267 268 265 264 265 270 270 270 270 270 278 282 285 287 289 291 291 290 290 290 290 290 290 290 291 294 294 295 296 298 300 302 303 302 302 302 301 300 300 299 299 298 298 298 298 297 296 296 296 296 297 297 298 298 298 297 296 296 296 295 294 294 294 293 292 291 291 291 291 291
273 271 278 278 281 282 282 282 283 281 270 275 275 269 273 275 273 266 267 266 267 266 268 268 272 275 280 282 283 286 290 289 288 288 288 288 288 289 288 289 291 293 294 297 298 299 301 301 302 302 301 301 300 300 299 299 299 298 298 297 297 297 297 296 296 297 297 297 298 298 298 297 296 296 295 294 294 294 294 294 293 292 292 292 291 290
274 274 277 280 281 282 281 281 281 280 279 274 269 273 277 275 269 268 264 262 264 264 269 269 272 275 276 277 284 286 287 287 286 287 287 287 288 288 288 289 291 293 296 297 298 300 301 300 300 301 301 301 300 300 299 299 299 299 298 298 297 296 296 296 296 297 297 297 298 298 298 297 296 296 296 295 294 294 294 294 293 293 292 291 291 290
276 272 275 277 279 282 279 282 280 281 280 280 276 276 274 265 267 261 264 264 266 266 267 268 270 275 274 279 283 285 285 285 285 286 285 285 286 286 288 289 291 294 296 296 297 298 299 299 300 300 300 300 300 300 299 299 299 299 298 298 298 297 297 297 297 297 298 298 298 298 298 297 297 297 297 296 295 295 294 293 293 293 292 292 291 290
278 271 274 278 279 280 279 278 271 276 279 280 280 278 273 272 265 263 265 263 265 266 267 267 271 272 275 279 284 285 285 285 284 284 284 285 286 286 287 289 291 294 295 296 296 297 298 298 299 299 299 298 298 298 299 299 299 298 298 298 298 298 297 297 297 297 297 298 299 298 298 297 297 297 297 296 295 294 294 293 293 293 292 291 290 290
274 275 268 275 277 278 274 277 274 274 272 275 274 269 274 269 271 272 268 268 265 262 262 264 267 273 280 281 285 286 286 285 284 284 284 285 286 287 288 289 291 294 295 295 296 296 296 298 298 298 299 299 298 298 298 298 298 298 298 298 298 297 297 297 297 298 298 299 299 298 297 297 297 297 297 296 295 294 294 294 293 293 292 291 290 290
270 273 270 271 274 274 274 275 277 274 274 273 274 272 273 268 267 263 267 270 270 268 264 265 267 274 281 285 288 288 288 286 285 286 284 285 286 286 288 291 294 295 296 296 296 297 297 297 298 298 298 298 298 297 298 298 298 298 298 298 298 298 297 297 297 298 298 299 299 298 298 297 297 297 296 295 295 294 294 293 293 293 292 291 290 290
277 270 270 271 273 275 276 276 275 277 276 275 276 274 270 266 263 259 263 261 265 269 267 267 268 273 282 283 286 288 287 286 287 286 285 285 285 287 289 292 296 296 296 296 297 297 297 298 298 298 297 297 297 297 297 297 297 297 297 298 298 297 297 298 298 298 299 299 299 298 298 297 297 297 296 295 295 294 294 294 293 293 292 291 290 290
283 267 267 271 273 273 274 272 272 270 276 276 275 274 272 271 270 271 265 262 265 264 267 268 268 275 283 283 285 287 286 287 286 286 285 285 286 287 289 291 295 296 296 297 297 297 297 297 298 297 297 297 297 297 297 297 297 297 297 298 298 297 297 298 298 298 299 299 299 299 298 297 297 297 296 295 294 294 294 294 293 293 292 292 291 289
274 271 271 266 266 271 269 270 273 272 274 270 273 274 273 270 268 264 264 263 267 264 269 268 267 273 283 283 285 286 286 286 285 286 287 285 285 287 289 290 294 296 296 296 296 297 297 296 297 297 297 297 297 297 297 297 297 297 297 297 297 298 298 298 298 298 298 299 298 298 298 297 297 296 296 295 294 294 294 294 293 293 293 292 291 290
277 270 269 269 267 267 269 271 272 268 270 270 273 273 273 274 270 270 268 263 265 263 267 265 268 277 282 284 284 284 285 285 286 286 287 287 286 287 288 290 294 295 296 296 296 296 296 296 296 296 297 297 297 297 297 297 297 297 297 297 298 298 298 298 298 298 298 298 298 298 297 297 297 296 296 295 295 295 295 294 294 293 292 292 291 290
267 266 269 270 271 272 275 275 273 276 270 271 270 273 274 272 268 268 265 261 266 263 267 272 273 277 278 281 281 282 284 283 284 285 285 285 286 288 289 290 292 295 295 296 296 296 296 296 296 297 297 297 298 298 298 297 297 297 297 297 298 298 298 298 298 298 298 298 298 298 297 297 297 296 296 296 296 295 295 294 294 293 292 292 292 290
266 270 271 268 271 276 275 275 275 276 273 273 273 273 273 272 271 271 269 269 268 264 269 269 272 271 277 280 280 281 282 283 284 285 285 286 287 287 289 290 291 294 295 295 295 295 295 296 296 296 297 297 297 298 298 298 298 298 297 297 298 298 298 298 298 298 298 298 298 298 297 297 297 297 297 296 296 296 295 295 294 293 293 292 292 290
269 269 267 269 271 273 274 274 275 273 273 274 274 272 271 272 270 271 271 273 268 268 271 270 271 272 277 279 280 280 281 283 285 285 285 287 288 288 288 289 289 290 294 294 294 295 295 295 296 296 297 297 297 297 297 297 297 297 298 298 298 298 297 298 298 297 297 297 297 297 298 298 297 297 297 296 296 296 295 295 294 294 293 292 292 291
275 268 265 267 268 270 274 274 272 272 270 271 272 273 274 272 272 273 273 270 272 273 275 275 274 274 277 278 280 282 282 285 285 285 285 284 286 287 288 288 288 289 291 293 294 294 295 296 296 296 296 296 297 297 297 297 297 297 297 297 297 297 298 298 297 297 297 297 297 297 298 297 297 297 297 296 296 296 295 295 294 293 292 292 291 291
275 268 274 264 266 268 266 269 268 270 267 267 272 273 273 273 272 272 270 268 267 270 272 273 272 273 278 280 280 281 282 283 284 283 284 284 285 285 286 287 288 288 290 292 295 293 292 294 296 296 296 296 297 297 297 297 297 298 297 297 297 297 298 298 296 296 295 296 297 297 297 297 297 297 297 297 296 296 295 295 294 293 292 291 290 290
274 267 264 264 268 268 266 265 267 264 265 267 269 271 270 269 267 268 270 272 270 271 267 268 267 271 277 279 280 281 279 280 282 283 284 284 284 285 285 285 287 288 289 290 292 296 295 293 294 296 296 296 297 297 297 297 297 297 297 298 298 298 297 296 296 296 295 296 296 296 297 296 297 296 296 296 296 296 295 294 293 293 292 291 290 290
272 268 268 265 268 263 266 266 266 265 267 274 273 273 273 272 271 269 272 273 275 273 269 265 273 276 276 278 279 279 278 278 280 281 282 284 285 284 284 285 286 289 290 290 290 291 295 296 296 296 296 296 296 296 297 297 296 297 298 297 297 296 296 295 295 296 296 294 295 295 295 295 295 295 295 296 295 295 294 294 293 292 291 290 290 289
272 270 264 264 269 263 265 265 266 270 271 272 276 274 273 272 272 272 272 272 274 276 276 276 279 277 276 277 277 278 278 279 280 281 281 282 283 284 284 285 285 286 289 290 290 291 292 294 296 297 297 297 297 297 297 296 297 298 297 296 295 295 296 296 295 295 295 294 295 295 295 295 295 295 295 295 295 294 294 293 293 293 292 290 289 289
273 267 264 262 268 267 267 270 273 268 272 277 275 272 273 273 274 276 275 273 274 276 277 277 277 277 278 278 278 279 279 279 278 279 280 279 280 281 282 283 284 285 287 288 289 291 291 292 295 296 295 295 295 295 295 295 296 295 295 295 295 295 295 295 295 295 294 294 295 295 295 296 295 295 295 295 295 294 294 294 293 293 292 291 290 290
271 271 265 267 262 264 267 263 266 268 271 278 279 273 274 272 272 274 275 278 277 276 276 277 279 279 278 277 277 277 277 278 278 278 278 279 279 280 280 282 283 284 284 287 288 290 290 290 291 293 294 295 294 295 295 296 295 295 295 295 295 295 295 295 295 295 294 294 294 295 295 295 295 295 295 295 294 294 294 294 294 294 292 290 290 290
276 269 267 268 264 267 262 260 274 274 279 280 274 274 275 276 274 276 271 273 272 276 277 278 279 278 278 277 276 276 275 276 278 282 279 278 280 279 280 280 281 282 283 284 286 288 291 289 288 289 289 291 294 295 295 295 295 295 295 295 295 295 295 295 295 294 295 294 295 295 295 296 295 295 295 294 294 294 294 294 294 293 291 291 291 290
276 274 270 271 269 262 266 265 266 268 268 272 276 276 277 274 275 273 275 276 276 274 278 278 277 278 276 275 274 274 276 277 278 278 279 278 278 280 279 279 279 279 280 281 283 284 285 285 285 286 287 290 292 293 294 294 295 295 294 294 293 294 294 294 295 295 295 295 295 295 296 296 296 295 295 295 294 295 295 294 294 293 291 292 291 290
272 272 269 273 267 264 265 264 262 265 274 275 277 278 275 274 274 271 275 274 277 275 276 278 278 276 276 277 276 275 276 275 274 276 278 278 278 279 279 279 279 278 278 279 280 281 282 284 285 286 286 288 291 291 291 292 294 295 294 294 294 294 294 294 295 295 295 295 296 296 296 296 296 296 295 295 295 295 295 294 294 293 292 292 292 291
270 263 265 267 263 263 263 263 268 266 272 276 275 275 276 273 275 278 273 269 277 276 276 277 278 277 276 275 274 274 276 271 275 278 278 279 278 278 279 279 279 278 279 278 278 279 280 281 282 284 286 287 290 288 290 291 295 294 295 294 293 294 294 295 296 297 296 296 296 296 295 295 295 295 295 295 295 295 295 294 291 291 291 291 292 291
268 267 267 272 267 267 273 265 262 271 276 278 277 274 274 274 279 273 272 276 278 275 276 277 278 277 276 275 276 278 277 276 277 278 277 276 278 279 278 277 278 277 277 277 278 280 279 279 281 282 283 284 285 285 287 290 292 293 293 293 292 293 295 296 295 295 296 295 295 295 295 295 295 295 295 296 296 295 292 292 292 291 291 291 291 291
263 261 263 261 264 269 266 267 270 272 278 278 274 277 275 277 270 271 279 277 278 277 275 277 277 276 275 277 278 276 275 276 276 276 276 277 278 279 277 277 277 277 276 277 277 277 278 278 278 278 279 280 281 283 284 289 292 292 292 291 292 294 296 293 293 293 293 293 294 294 294 293 293 293 295 294 294 292 292 292 292 291 291 291 290 290
273 271 267 268 266 262 261 263 265 269 278 280 277 278 276 275 277 279 276 275 276 278 277 276 277 276 276 277 277 278 277 277 277 277 277 276 276 277 278 277 277 277 278 277 277 276 277 279 279 278 278 278 279 281 282 285 289 291 291 292 293 293 292 292 291 292 292 292 293 292 292 292 292 292 294 293 291 292 291 290 290 290 290 290 289 289
277 271 263 266 272 269 266 267 272 281 279 280 283 280 278 281 277 276 278 280 276 276 277 277 276 277 277 278 278 278 277 276 277 277 276 275 275 275 275 275 275 276 276 276 276 276 276 277 277 277 276 276 277 281 281 285 288 288 289 291 288 288 289 290 290 290 291 291 291 291 290 290 289 289 290 290 289 290 290 289 289 289 289 289 289 289
280 281 276 275 275 273 272 276 281 277 278 282 285 282 281 283 276 277 276 278 280 277 276 278 279 277 277 278 278 277 277 277 277 276 276 279 278 277 277 277 277 276 276 276 276 275 275 276 277 276 276 275 275 277 281 284 287 287 288 287 284 286 288 289 288 289 289 289 289 288 288 288 288 288 288 288 289 289 289 289 288 288 288 288 288 288
278 281 276 278 276 278 279 280 280 277 276 279 282 280 276 277 278 275 278 279 279 279 278 280 279 278 277 277 278 276 277 277 276 278 277 277 276 276 275 275 275 275 275 275 275 275 274 275 275 275 276 277 275 276 280 283 284 284 285 284 283 284 286 287 288 288 288 287 287 287 287 288 287 287 287 287 288 288 289 289 289 289 289 288 288 289
277 274 277 276 277 279 277 281 281 281 280 279 281 283 280 278 278 278 277 278 279 278 278 278 278 278 278 277 279 280 279 277 277 277 276 276 277 276 275 275 275 275 276 276 277 275 274 274 276 276 275 277 276 275 277 279 282 285 283 281 280 282 285 287 288 288 287 287 287 287 287 288 288 288 287 287 288 288 288 289 289 288 289 288 289 288
278 278 281 274 275 280 280 279 279 280 278 280 281 281 282 282 281 278 279 279 278 278 278 279 276 275 276 277 278 279 279 277 277 278 277 277 277 277 276 275 275 275 275 274 274 273 272 274 276 276 275 276 276 275 275 276 279 280 281 279 274 278 283 285 285 286 286 286 286 287 287 287 286 288 289 288 288 288 288 288 289 289 289 290 290 289
279 282 277 278 280 280 279 280 281 280 279 279 280 280 282 283 282 281 279 279 278 277 278 277 277 278 278 281 278 279 278 278 278 278 278 277 276 276 277 276 275 275 275 275 273 272 276 275 274 275 274 276 276 274 274 274 276 275 275 277 275 278 281 282 281 283 283 284 284 284 285 286 286 286 287 287 287 287 288 289 288 288 289 289 290 290
280 279 278 279 278 275 280 284 284 279 280 283 281 282 282 282 282 282 279 277 278 278 279 278 278 277 277 278 278 278 279 280 278 277 278 278 278 277 276 276 275 274 274 274 273 272 272 270 272 273 274 276 275 273 273 273 275 274 274 275 276 277 280 279 279 279 281 281 282 283 283 284 285 286 286 286 286 287 287 286 287 288 290 290 288 288
284 282 281 281 280 280 284 286 287 289 286 283 285 284 283 283 281 280 280 281 280 280 280 280 280 278 279 278 277 279 279 280 279 277 277 277 278 277 276 275 275 275 276 273 272 271 271 272 270 270 271 274 273 273 273 274 274 273 273 274 275 277 278 277 277 278 279 278 279 281 281 282 283 284 284 285 285 285 285 285 286 286 287 287 288 288
Wind_Speed
1 3 1 0 3 3 2 3 3 3 3 1 1 2 7 8 13 7 7 6 1 4 6 6 6 12 16 15 14 14 9 7 6 7 7 6 6 5 5 6 8 8 8 9 10 10 9 7 8 8 6 6 5 7 8 9 9 10 11 12 13 11 14 14 13 12 10 10 7 8 11 9 7 7 7 6 6 5 4 5 6 6 5 5 8 6
4 2 1 3 2 3 2 3 3 3 3 3 2 2 8 3 11 7 4 2 1 5 7 6 9 14 14 13 13 9 5 8 7 7 7 7 5 6 6 8 7 8 6 8 9 10 6 5 6 6 5 5 9 9 11 11 12 12 11 14 14 12 12 13 15 14 12 8 8 9 9 9 10 9 9 8 5 5 4 4 4 5 5 6 5 7
3 2 2 2 1 4 4 4 2 2 2 1 3 2 3 8 9 14 4 1 1 5 10 4 6 16 15 13 11 6 5 7 6 5 5 4 7 7 7 7 7 7 10 9 9 8 7 6 6 6 6 8 10 11 13 13 13 12 11 9 12 12 14 13 12 11 10 8 6 6 7 10 8 5 5 6 5 6 6 4 4 4 5 5 5 5
6 2 4 0 3 1 2 3 3 2 2 2 1 1 6 3 7 11 2 1 6 2 5 5 11 14 10 5 8 7 4 6 6 5 7 6 7 9 8 7 7 8 10 10 10 9 8 6 5 4 6 7 7 7 8 10 13 11 10 10 11 12 11 12 12 11 10 10 9 8 9 7 5 7 7 6 5 5 6 5 4 4 5 4 5 4
6 1 1 2 1 1 0 0 1 2 5 2 3 4 4 4 3 5 10 11 8 2 1 9 6 6 3 3 6 6 3 3 5 4 5 7 7 7 6 6 5 8 9 10 10 9 7 6 6 6 7 7 8 9 10 11 11 9 13 13 13 12 10 11 13 13 14 13 12 10 9 8 10 7 7 8 5 5 5 5 4 4 4 4 5 5
6 2 1 2 2 2 1 3 1 2 7 6 5 8 6 4 5 6 6 11 8 6 2 10 10 3 3 6 8 7 5 7 5 3 8 9 6 4 5 7 7 7 6 8 10 9 7 7 6 5 7 8 8 9 10 11 12 12 11 12 11 9 10 8 12 16 14 14 16 14 12 10 8 10 10 12 13 10 9 8 5 4 3 4 4 5
1 1 1 2 2 1 2 1 2 2 1 5 6 4 4 4 4 5 7 4 5 3 5 5 2 10 2 5 5 5 4 9 10 6 9 7 6 5 6 7 8 7 8 6 7 7 7 6 4 6 8 10 9 10 10 10 11 12 12 13 13 12 10 11 11 13 12 13 12 17 17 15 14 12 6 4 5 7 6 6 7 5 4 4 5 5
1 1 3 4 1 1 1 3 2 5 3 5 1 1 2 5 8 7 2 2 4 2 6 5 2 3 10 10 4 4 5 10 8 9 8 6 5 6 8 8 8 7 6 7 8 8 6 5 5 8 9 11 11 10 9 10 10 12 13 14 13 11 11 10 12 11 10 14 12 11 10 10 10 9 8 8 7 6 6 7 6 5 4 3 4 5
3 1 2 1 2 1 0 1 3 3 2 5 3 2 8 9 8 4 1 2 0 1 7 3 2 1 4 10 5 4 8 7 8 7 7 6 5 8 10 10 9 8 6 6 8 8 8 7 5 7 9 10 10 10 11 11 11 11 12 13 12 12 12 11 12 12 9 8 10 10 9 9 6 8 8 7 7 8 7 7 6 5 5 3 3 4
0 1 4 7 1 3 5 2 5 6 2 3 4 8 5 1 2 2 3 4 1 2 4 1 0 2 9 6 6 2 4 7 8 10 7 6 10 12 12 10 10 10 6 5 7 7 8 7 6 8 9 9 9 10 10 10 10 11 11 12 13 12 11 11 12 11 10 10 9 10 10 12 10 8 8 8 9 9 8 7 6 5 5 4 4 3
1 3 6 3 3 2 1 2 5 4 4 6 4 3 4 6 2 2 4 3 3 1 6 3 1 1 6 8 5 7 11 12 11 8 7 8 10 14 13 9 10 11 9 8 6 7 8 7 7 8 9 6 9 9 9 9 10 10 12 13 14 13 11 12 13 13 12 10 10 9 11 12 13 12 12 11 9 9 9 9 7 6 5 4 4 3
3 2 2 1 3 1 0 1 2 1 2 2 3 4 6 1 5 2 4 3 1 4 2 3 4 2 2 8 5 5 7 8 8 12 14 14 15 15 13 11 10 11 9 9 8 7 7 7 5 9 9 9 9 10 10 9 9 10 10 11 13 11 12 12 12 12 11 10 10 9 11 12 11 13 12 13 13 11 11 10 9 6 5 4 4 4
2 1 1 6 3 3 1 0 1 1 2 7 6 9 7 6 7 2 6 6 0 2 1 5 3 2 6 11 12 13 10 6 4 8 12 14 16 15 13 12 11 10 8 8 8 7 6 5 7 10 9 10 10 10 11 11 10 10 10 12 13 13 12 12 13 13 12 11 10 10 11 10 10 10 10 10 11 11 11 10 9 9 7 6 6 5
2 2 3 2 3 1 0 2 5 3 6 9 6 3 6 7 6 5 5 3 6 4 1 2 3 2 6 10 7 8 4 3 7 9 10 13 14 15 13 12 11 9 7 7 7 7 5 5 6 8 10 10 9 10 11 11 10 9 9 11 12 11 12 11 11 12 11 11 10 9 9 9 9 9 9 9 10 10 9 9 10 10 10 10 9 8
4 4 2 0 1 1 1 1 3 3 1 0 4 1 2 4 0 5 2 3 5 10 6 2 1 5 6 8 4 2 2 4 5 9 12 12 12 12 12 12 11 9 7 7 7 7 4 4 5 7 9 9 10 11 10 10 10 10 10 10 11 11 10 11 11 10 11 9 9 9 8 8 8 8 8 7 7 9 10 9 9 8 7 8 7 8
2 6 4 2 2 0 1 0 1 5 4 1 3 4 3 3 4 3 5 3 5 8 8 2 4 3 5 6 7 3 4 7 8 11 14 17 14 14 13 12 11 10 9 8 4 6 5 4 7 6 7 8 9 11 9 10 10 10 10 10 11 12 12 12 11 10 10 10 9 9 10 9 9 7 7 6 6 7 7 8 9 8 8 7 6 6
2 2 2 5 2 1 0 1 1 0 1 1 2 0 1 2 4 2 3 1 1 1 9 2 8 6 7 7 3 3 9 12 9 12 14 15 14 12 11 10 11 10 8 9 3 3 5 3 7 7 7 6 8 8 9 10 10 11 11 10 9 9 9 10 11 10 9 9 10 10 9 9 10 10 10 9 10 9 7 7 6 7 7 6 6 6
1 8 1 2 0 0 1 0 2 4 2 5 2 2 1 3 4 3 3 4 2 2 7 4 7 12 9 7 0 7 11 14 12 14 14 15 14 12 12 11 10 9 8 7 7 3 2 4 8 8 8 8 9 8 8 8 7 8 9 10 11 10 11 9 9 9 9 10 10 10 9 9 10 9 9 8 9 8 8 7 6 6 6 7 7 7
2 5 2 1 1 4 2 1 3 1 3 1 3 3 1 2 3 2 1 7 8 7 6 5 5 8 3 7 7 13 18 20 19 15 17 22 19 15 13 12 11 8 6 6 8 4 4 5 7 8 8 8 8 8 8 7 7 7 7 8 9 10 10 11 9 8 7 8 8 8 9 9 9 8 8 7 7 7 8 8 8 8 7 6 7 7
1 1 6 0 2 2 1 2 1 1 3 1 3 2 1 2 3 0 1 2 5 7 9 7 3 8 3 2 3 7 11 14 17 15 15 17 16 13 12 10 10 8 5 5 6 7 4 8 5 11 9 9 9 9 8 8 7 8 8 8 8 7 7 8 8 8 9 8 7 7 7 8 7 8 8 8 9 9 8 8 8 8 8 8 7 7
1 1 2 2 2 1 1 2 3 6 3 1 3 1 0 0 2 2 1 2 3 2 2 4 10 7 8 2 2 3 7 9 10 11 11 14 14 13 12 11 8 6 4 4 6 7 7 7 7 8 9 8 8 8 8 8 8 7 7 7 8 10 9 9 9 9 8 8 8 8 9 9 9 9 8 8 8 8 7 7 7 7 7 7 7 7
3 0 5 4 7 1 5 1 1 4 4 5 5 3 5 1 3 3 8 2 1 2 3 2 10 9 11 1 2 1 5 6 2 6 9 14 14 11 10 10 10 3 4 4 5 5 5 5 10 9 8 7 7 8 8 7 7 8 7 7 7 7 8 9 9 8 8 8 7 9 9 9 8 8 8 9 8 8 7 7 7 7 7 8 7 8
2 3 1 6 6 4 2 3 4 0 2 2 5 2 3 3 5 3 2 3 1 3 0 2 1 12 7 4 3 2 3 6 3 3 9 10 12 11 11 10 8 5 5 5 5 4 4 6 7 8 8 8 7 7 8 7 7 7 7 7 7 7 7 8 8 7 7 8 7 8 8 8 8 8 9 9 8 8 8 7 7 7 8 8 7 6
4 1 1 6 6 2 1 1 1 6 2 2 1 4 4 3 5 6 4 3 2 3 2 2 3 12 8 2 3 3 2 4 3 1 7 9 9 11 10 10 8 5 3 4 3 4 3 5 5 6 7 7 7 7 7 6 6 6 6 6 6 7 8 7 7 7 7 7 7 8 8 9 8 9 9 9 8 9 8 7 7 7 7 7 7 8
1 2 3 3 6 5 3 1 1 3 1 0 1 3 3 4 5 2 4 1 1 6 7 6 7 8 7 3 3 4 4 6 6 3 2 8 9 9 8 9 6 5 4 3 3 3 4 5 5 4 5 5 5 5 5 5 5 6 6 6 6 6 7 7 6 7 7 7 8 8 9 9 9 9 9 8 7 9 8 8 7 7 8 7 7 7
1 3 3 1 2 4 7 8 6 2 5 2 0 2 2 5 5 1 1 2 1 3 5 3 8 12 10 14 14 12 11 10 3 3 2 3 4 7 8 6 7 3 4 3 2 3 4 5 2 2 4 5 5 5 4 5 5 5 5 6 5 6 6 6 7 6 7 7 7 7 9 9 9 9 9 9 8 9 8 8 8 8 7 7 8 7
2 1 1 5 8 8 10 5 1 1 1 1 2 4 4 2 2 5 6 4 6 4 5 10 10 16 19 18 12 16 14 13 12 10 8 10 10 8 6 7 7 2 3 3 2 2 1 3 5 6 6 5 6 6 6 6 6 6 6 6 6 6 6 7 7 7 7 7 7 6 8 9 9 9 8 8 8 7 7 7 7 8 8 8 8 8
2 1 6 5 8 10 4 3 0 2 4 5 6 6 6 7 8 8 9 8 6 2 10 5 3 2 13 16 14 14 14 11 9 9 9 6 7 7 8 8 7 4 2 4 1 2 3 3 4 4 5 5 6 6 6 6 6 6 6 7 6 6 7 6 7 7 7 7 7 6 7 8 8 8 8 8 7 7 7 7 7 7 7 7 7 8
4 3 5 6 10 8 8 10 7 5 6 7 8 7 5 8 8 12 12 10 5 5 14 3 1 8 17 16 16 15 9 9 10 10 8 6 4 5 6 8 8 6 3 2 4 2 3 3 3 3 4 5 5 6 6 5 6 6 6 6 7 7 7 7 7 7 7 7 8 7 6 7 7 6 6 7 7 7 7 7 7 7 6 7 7 6
3 5 3 1 8 6 9 8 3 4 5 4 11 13 11 10 15 15 13 6 12 14 13 12 14 19 20 18 17 15 8 8 9 7 5 4 5 5 6 7 6 7 5 3 3 3 3 3 4 4 4 4 5 5 5 5 5 6 6 6 7 7 7 8 7 8 7 7 8 7 6 6 6 6 6 7 7 7 7 7 7 6 6 7 7 6
2 4 6 1 2 8 3 2 3 1 3 8 10 11 10 9 7 10 5 5 3 10 16 16 15 19 19 11 12 9 5 6 7 7 6 4 4 4 5 6 7 6 6 5 2 5 4 5 4 5 6 5 6 6 6 5 5 6 6 6 7 7 7 7 7 8 8 8 7 6 6 6 6 6 7 7 7 6 6 6 6 6 6 6 6 6
1 2 3 2 2 6 1 1 1 2 4 9 15 15 8 7 7 6 9 8 7 12 2 1 3 11 13 5 5 7 5 4 5 8 8 6 4 5 5 6 6 7 6 5 6 1 5 5 5 6 6 7 7 7 6 6 5 5 6 6 6 7 7 7 7 7 6 5 5 5 6 6 6 6 6 6 6 6 6 5 6 6 6 6 6 6
5 5 3 2 1 6 3 0 4 7 6 10 12 12 12 10 4 0 3 4 13 7 5 4 10 8 4 1 7 6 4 5 5 4 7 9 6 3 5 6 5 5 6 4 4 4 1 4 5 6 6 5 6 7 7 7 6 7 7 7 6 6 7 6 6 6 5 5 5 6 5 5 5 6 6 6 6 6 6 6 6 6 6 6 5 5
4 5 2 2 1 2 4 6 1 4 8 10 3 3 10 10 15 9 8 14 14 13 9 7 10 4 5 6 4 7 6 4 2 5 3 6 7 7 5 4 5 6 5 6 4 3 3 2 4 5 6 7 7 7 7 7 8 7 6 6 6 7 6 7 6 6 6 6 6 6 6 6 6 6 6 6 6 6 6 6 7 6 5 5 5 6
7 3 3 1 1 4 5 6 5 6 12 6 1 3 3 1 11 15 9 5 7 15 14 13 14 10 12 8 6 7 7 6 4 6 5 3 4 5 4 5 5 4 6 7 5 4 4 4 2 4 4 5 6 5 6 5 5 5 6 7 7 7 7 6 6 6 6 6 6 6 6 6 6 6 6 6 7 6 7 7 6 6 7 6 7 8
9 7 4 0 2 1 1 1 0 10 5 10 9 4 5 2 4 2 8 13 15 17 19 16 17 14 9 8 6 6 6 6 7 4 3 3 3 4 3 3 3 3 4 5 7 5 4 5 4 2 3 3 4 5 5 6 6 7 7 6 7 7 7 7 7 7 6 7 7 7 7 7 7 7 6 7 7 7 7 7 8 8 6 6 6 6
10 5 3 1 1 3 3 2 10 9 17 11 2 1 6 5 6 7 5 7 7 8 13 13 14 11 9 8 8 5 3 2 1 1 3 2 2 3 4 5 3 4 4 5 4 6 3 5 5 4 3 1 3 5 5 5 5 6 6 6 6 7 7 8 8 8 8 8 8 8 8 8 8 7 7 7 8 8 8 8 8 7 6 7 7 7
2 5 4 4 3 4 2 4 5 3 4 9 5 1 1 1 4 3 3 8 4 7 11 13 9 10 9 7 5 3 0 2 3 2 2 3 3 3 3 4 4 4 5 6 5 3 4 5 4 4 5 3 3 3 4 5 6 6 6 6 6 6 7 7 8 8 8 8 8 8 8 8 8 8 8 8 9 9 8 7 6 7 7 8 8 8
3 5 3 8 3 4 2 3 3 3 9 6 1 0 1 3 5 4 4 8 7 8 11 12 11 8 7 6 3 1 3 1 3 3 2 2 3 1 1 2 3 3 3 4 3 3 2 2 3 5 3 3 3 3 4 6 7 7 7 7 7 6 7 7 7 8 8 8 7 7 8 7 7 7 7 8 8 7 7 8 8 7 7 8 7 7
3 1 2 1 2 4 5 3 6 5 7 1 4 3 3 5 3 2 6 6 1 5 9 9 10 9 7 5 3 2 6 4 6 4 3 3 3 3 3 1 2 4 4 2 2 3 3 2 2 2 2 3 2 1 1 3 6 6 7 7 6 7 8 9 9 9 8 7 7 7 8 7 8 7 8 9 8 7 8 6 4 6 7 7 7 7
3 0 2 11 5 4 7 5 4 9 9 7 5 4 4 4 0 1 8 6 4 7 9 10 9 8 6 6 6 5 8 3 4 3 1 3 1 1 3 2 3 2 3 3 3 0 1 1 1 3 3 3 4 2 1 3 3 5 4 4 5 7 9 8 5 5 6 6 6 6 7 7 7 9 8 7 8 7 5 5 7 7 7 8 7 7
1 3 2 4 4 9 5 4 8 8 11 9 3 9 5 3 4 10 10 3 9 7 7 10 8 5 6 8 8 7 4 4 1 1 2 3 3 2 3 2 2 1 3 3 4 2 1 1 2 2 3 2 2 3 3 2 6 5 5 4 6 10 5 3 4 4 4 5 5 5 6 6 5 6 7 6 6 6 7 6 6 6 7 6 6 7
15 11 9 8 4 5 2 1 1 5 6 8 12 4 1 4 9 7 2 1 3 8 11 7 8 5 6 6 7 7 5 4 4 5 4 3 3 3 2 1 1 1 2 1 0 2 1 1 1 2 2 1 0 1 1 1 3 4 4 7 4 1 0 2 3 4 4 4 5 5 6 6 6 7 6 6 5 6 6 4 5 4 4 5 5 6
8 5 3 4 8 9 8 9 10 12 4 14 18 11 9 15 3 4 6 5 3 5 8 7 7 8 8 7 6 7 7 5 7 6 5 5 5 4 4 3 3 3 3 3 4 3 1 2 2 2 2 1 2 3 3 4 3 3 4 5 0 2 1 1 1 1 2 1 1 1 2 2 3 3 3 4 4 4 5 4 4 4 4 4 5 5
17 11 10 10 9 10 12 14 12 3 8 14 12 5 5 11 3 5 3 5 7 6 4 7 9 8 10 10 6 5 5 6 7 4 4 4 4 4 3 2 2 2 2 2 3 2 0 3 3 2 2 1 3 3 4 4 5 4 5 3 1 2 1 2 3 4 4 3 3 3 2 2 2 3 3 3 4 4 4 4 3 4 3 4 4 5
3 6 3 5 7 4 5 7 2 2 3 10 12 6 1 3 4 3 4 1 5 5 10 9 8 8 8 7 7 5 6 5 4 6 6 7 6 5 4 3 3 3 3 2 2 1 1 1 2 2 3 3 4 6 6 6 6 7 6 2 3 4 3 3 4 4 4 3 3 2 2 2 2 3 3 3 4 4 4 4 4 4 4 4 5 5
5 3 4 4 1 9 9 7 13 14 7 9 14 12 6 3 4 5 4 6 4 5 6 4 5 8 10 11 10 9 7 5 5 7 4 4 7 7 5 5 4 4 4 4 3 2 2 1 0 2 3 4 2 1 2 4 7 8 4 5 4 3 3 5 5 5 4 5 4 3 3 4 4 3 4 4 4 4 4 4 4 4 4 5 5 5
4 6 6 3 5 9 8 6 6 7 3 6 10 10 11 13 11 7 8 5 2 2 4 6 4 3 7 8 11 10 9 5 6 8 5 5 6 6 6 6 4 3 4 4 3 3 3 3 3 2 2 3 3 1 1 2 3 2 1 2 3 3 4 3 4 4 4 4 3 3 3 4 5 5 4 4 5 5 5 5 6 7 8 8 8 7
5 14 8 9 10 7 4 8 5 2 4 9 12 10 10 9 10 10 9 7 5 4 4 3 5 6 10 9 9 9 7 8 9 7 6 5 4 5 6 6 5 4 4 5 5 5 6 5 5 5 4 4 3 2 3 4 4 4 4 4 4 5 5 4 4 4 3 3 2 3 2 2 2 2 2 3 3 3 3 3 3 5 5 6 4 6
10 9 3 6 9 5 13 14 7 2 6 10 11 17 16 13 10 10 6 6 8 8 7 6 7 4 5 2 6 8 9 7 6 6 6 6 5 5 4 5 5 5 5 3 2 4 5 4 5 4 5 6 3 3 4 5 5 4 4 4 5 7 7 6 5 4 5 4 5 5 5 5 6 6 6 7 7 6 7 8 9 9 9 9 11 14
14 13 11 12 11 13 13 14 13 15 7 4 10 13 14 11 9 9 12 14 13 11 8 8 6 5 6 8 5 7 8 8 7 7 5 5 7 5 4 4 5 5 5 2 2 3 4 5 5 4 5 6 4 4 4 4 4 3 4 5 4 5 5 4 4 4 4 4 5 6 5 4 5 6 6 6 6 5 6 6 6 10 13 13 11 10
Wind_Direction
49 85 124 167 247 235 220 172 164 188 174 196 167 221 267 277 279 270 266 258 344 304 253 263 277 283 286 287 288 289 312 303 282 273 275 277 277 279 284 286 288 289 287 287 296 293 280 254 235 229 224 225 186 180 173 174 162 158 157 147 145 146 142 142 143 147 152 150 140 137 147 142 139 134 127 124 134 134 138 137 132 135 135 140 134 135
67 54 260 220 220 218 200 178 102 91 130 186 235 263 286 244 283 268 278 68 336 51 285 303 300 283 281 286 285 291 318 287 278 284 279 274 274 280 280 280 280 284 290 299 306 307 303 275 253 241 223 192 179 175 167 166 164 161 158 156 148 149 150 153 156 155 157 160 161 153 153 141 146 145 146 144 145 134 128 124 127 135 140 145 146 144
32 217 198 217 164 95 84 106 116 150 211 166 225 245 311 276 239 281 294 94 236 4 277 322 316 288 288 288 284 273 254 257 257 227 248 263 287 288 280 276 281 301 300 301 292 295 303 284 263 230 217 201 189 173 172 167 157 156 155 152 153 157 158 157 151 147 146 138 128 135 136 141 126 88 107 120 131 130 130 123 121 121 134 142 141 145
0 299 242 207 121 108 78 80 94 63 115 196 206 294 265 280 9 323 217 21 320 218 291 312 298 282 293 275 267 261 229 255 261 249 249 231 251 258 265 282 300 299 296 295 295 299 307 295 271 229 223 199 168 160 161 155 155 153 154 150 156 160 159 152 150 138 123 117 101 91 108 101 101 131 115 100 101 110 116 129 132 127 127 131 130 124
224 176 102 75 87 161 210 5 63 67 327 249 204 230 256 291 239 188 299 332 303 337 188 297 261 296 263 311 314 294 281 283 280 305 280 261 237 250 273 296 278 276 284 288 293 297 304 308 264 219 222 183 164 162 162 161 160 160 160 159 161 158 161 155 146 138 132 120 107 106 90 88 95 92 117 128 136 147 139 122 151 151 136 135 133 133
293 283 108 84 44 34 50 348 169 103 337 324 237 195 216 263 279 273 303 332 351 337 356 20 343 309 285 252 256 278 338 320 296 303 279 279 291 289 299 296 298 281 264 269 280 283 293 292 270 236 227 180 168 168 169 168 166 160 156 150 147 146 146 155 149 144 144 145 143 140 137 147 153 154 164 173 170 168 168 167 143 132 140 140 145 147
205 52 99 208 121 43 52 193 240 134 37 355 293 186 232 249 263 282 309 5 326 338 306 53 63 294 243 279 279 287 304 287 297 294 275 280 282 295 303 309 302 298 300 290 275 280 291 291 261 237 227 177 175 178 166 164 163 158 150 150 152 152 151 150 151 150 145 147 158 162 166 164 165 161 164 124 126 150 145 137 145 139 135 148 148 143
104 5 25 34 53 46 39 50 201 133 73 293 224 88 279 285 288 289 296 175 238 273 302 48 95 263 313 299 266 250 294 289 294 288 284 286 293 303 312 309 302 296 294 290 290 289 282 276 249 235 221 182 182 168 161 158 156 154 150 150 150 148 150 154 152 157 161 156 159 155 154 155 152 160 154 142 131 121 127 134 138 135 131 136 143 133
124 136 153 16 59 34 330 210 174 155 164 242 289 312 298 287 282 271 186 190 97 6 312 335 2 329 246 265 272 307 318 304 288 278 295 293 295 312 314 312 309 300 286 285 286 290 292 288 257 228 224 191 169 161 163 162 161 153 151 151 149 150 149 152 156 155 159 157 157 154 149 145 136 135 141 135 132 131 135 130 131 137 134 121 112 118
334 144 215 144 158 272 237 243 165 142 355 273 292 303 288 68 71 100 137 106 4 62 284 291 69 327 287 262 307 255 222 292 310 317 298 303 321 325 319 314 311 305 297 283 267 276 290 280 263 230 226 187 166 165 163 158 151 148 149 150 151 152 152 153 157 155 155 154 154 154 154 148 142 137 131 137 140 140 143 139 142 141 147 144 131 121
158 278 156 121 205 217 195 241 175 191 228 317 348 324 332 30 67 61 70 94 61 6 254 197 201 106 297 281 283 349 332 314 319 309 304 313 325 328 320 315 307 304 304 301 285 281 282 271 255 226 212 179 151 150 152 149 147 146 152 153 156 156 152 156 158 159 159 159 164 159 158 155 150 148 146 146 147 146 149 153 154 157 154 145 140 134
5 38 74 260 92 268 280 0 24 200 212 47 17 357 341 1 351 34 351 37 69 272 250 169 184 158 229 294 289 245 277 312 324 315 318 322 329 328 317 316 310 302 301 297 290 294 291 292 265 214 181 163 143 142 146 145 143 146 152 154 150 151 154 157 159 159 159 161 164 161 158 158 158 157 160 159 157 161 158 155 156 153 146 150 147 153
42 116 291 323 211 227 230 39 318 16 355 34 11 21 23 290 16 334 11 355 256 250 171 164 213 351 236 233 277 298 295 327 318 301 308 322 327 323 317 314 312 306 301 291 293 297 290 275 252 199 152 142 143 146 145 144 144 147 150 154 152 155 156 159 159 163 162 164 167 164 162 156 156 160 160 158 156 161 158 158 157 161 163 158 166 181
291 310 350 295 331 233 161 73 325 15 344 25 41 13 50 4 21 330 275 222 296 277 247 151 205 234 257 286 249 261 315 309 317 306 314 326 322 321 317 315 313 309 297 294 297 294 280 257 242 179 150 143 140 142 143 142 144 148 151 156 155 152 154 156 159 160 160 164 163 159 155 154 155 162 163 161 159 161 160 163 165 169 171 175 183 177
10 342 293 106 240 81 330 107 169 185 89 166 145 117 171 133 113 297 267 301 268 276 301 251 76 244 345 276 292 40 289 334 313 328 331 323 322 322 317 316 317 316 315 309 302 303 289 256 208 156 153 146 143 142 139 141 144 146 153 154 151 145 150 155 159 157 158 158 158 155 154 151 153 158 161 157 159 160 161 164 166 170 168 174 175 178
196 231 250 251 231 337 94 264 102 94 61 75 135 108 53 275 132 193 210 198 297 335 322 282 203 206 218 253 309 14 343 332 337 342 349 337 333 330 326 330 325 316 312 312 302 312 291 254 142 142 141 142 138 141 141 143 146 151 156 159 160 157 156 157 157 160 160 160 158 156 157 155 154 153 151 147 154 162 160 163 168 169 170 169 160 157
22 297 312 320 51 49 197 204 307 53 4 245 69 33 231 179 116 332 326 287 353 66 255 226 298 285 281 305 323 9 329 338 347 344 352 338 330 327 324 321 321 313 312 322 288 335 299 111 128 134 130 128 128 135 146 151 157 154 151 153 153 147 146 155 159 157 160 159 159 162 157 156 159 163 165 163 161 162 159 162 165 165 160 151 156 155
159 260 301 84 350 313 284 120 59 1 127 80 48 244 138 98 122 123 270 323 65 164 271 342 295 312 4 332 279 345 332 338 353 345 350 337 332 336 336 327 322 316 315 341 336 312 345 127 121 118 122 127 133 134 134 137 136 140 146 151 150 150 152 156 157 158 162 163 165 163 163 162 164 162 158 155 160 157 153 159 156 150 152 165 158 156
110 330 303 298 211 263 2 171 23 350 354 156 174 189 73 310 328 316 83 345 345 317 299 288 273 266 195 271 346 344 350 342 345 345 353 345 341 336 333 329 321 319 333 3 360 340 67 61 115 105 110 113 115 117 116 112 116 124 132 141 149 155 158 155 158 159 161 167 166 167 163 161 159 159 155 150 148 152 160 166 166 162 157 144 150 155
23 167 297 271 156 328 333 71 237 261 6 37 81 43 129 110 183 73 204 182 128 272 347 290 338 292 241 256 321 334 342 338 340 346 353 336 331 328 326 326 315 321 333 17 12 10 47 70 64 111 111 114 114 115 116 114 115 127 134 139 142 140 141 145 154 158 165 170 167 158 152 157 158 157 157 155 156 165 171 172 166 159 156 163 157 165
117 107 246 280 287 344 301 208 213 158 164 354 45 330 341 26 209 135 284 158 167 210 194 294 321 293 286 209 224 351 324 334 338 331 339 335 329 326 326 322 307 319 28 16 33 39 354 85 69 88 101 105 109 113 119 123 127 130 133 135 137 144 148 157 162 162 165 164 168 160 163 161 159 159 153 151 162 162 166 168 168 165 156 146 168 164
83 152 205 309 354 273 235 257 180 166 169 166 154 200 173 95 340 351 281 20 38 106 247 347 280 274 282 217 163 43 293 331 6 327 336 332 333 326 326 325 325 30 59 32 47 56 42 52 100 80 89 95 108 116 116 115 119 126 136 137 141 146 160 159 160 167 166 173 168 165 161 159 158 157 155 158 160 166 166 168 172 161 153 165 168 170
140 156 83 284 220 218 258 350 339 226 101 153 135 177 132 118 108 104 300 287 3 245 180 189 294 273 246 227 184 221 291 3 41 10 328 331 334 331 333 336 351 69 83 58 43 55 71 54 78 106 109 116 122 122 125 127 132 136 139 139 147 156 167 168 167 163 164 168 167 161 158 157 161 160 162 161 165 168 170 170 168 164 164 166 166 173
96 83 14 274 301 321 352 294 337 25 115 85 31 83 108 169 174 173 181 189 196 305 22 338 230 262 283 201 180 266 308 12 35 20 307 323 343 333 338 346 355 37 96 99 64 54 55 89 67 93 105 115 123 128 132 133 140 140 133 136 153 169 165 160 158 161 164 168 163 157 157 163 162 164 166 169 169 172 172 169 170 165 166 165 162 171
109 282 123 327 348 335 349 349 359 337 48 152 185 191 147 99 87 153 115 45 337 219 178 128 253 278 284 137 264 285 317 8 352 309 272 326 343 341 333 341 351 14 45 82 113 97 73 70 96 96 114 115 116 123 127 135 128 127 144 153 164 166 162 158 157 161 167 168 164 162 164 164 165 170 173 172 169 174 172 172 165 167 169 163 168 174
108 198 125 264 300 317 312 323 305 278 226 239 140 118 178 148 140 127 262 7 171 272 126 188 254 257 284 315 319 325 338 341 20 343 315 243 298 335 336 333 340 27 54 53 116 158 148 135 116 86 90 110 114 120 122 125 134 146 152 167 164 155 154 159 157 164 164 169 170 164 167 167 169 176 175 172 172 175 177 172 167 168 171 170 171 170
156 27 197 164 166 206 218 220 256 95 50 254 246 163 193 159 136 112 106 111 214 217 194 239 229 286 300 301 322 323 337 339 336 344 347 342 345 339 338 334 337 337 73 45 82 123 120 151 161 176 165 162 158 159 162 162 165 164 161 162 161 156 156 157 158 163 168 170 174 164 170 172 176 175 174 176 177 175 175 173 170 169 175 176 174 172
70 281 242 201 236 234 239 272 146 59 274 263 257 252 189 167 162 154 164 212 178 59 287 254 241 247 277 298 309 315 320 326 325 327 328 325 338 346 324 323 333 8 131 130 129 149 150 160 162 157 165 160 160 159 159 164 161 159 162 160 160 156 156 158 161 163 169 171 178 176 171 174 176 175 178 179 174 176 177 174 173 177 176 170 177 180
145 189 282 135 261 257 267 269 278 287 235 252 240 234 210 177 161 187 222 206 137 194 236 245 268 312 288 292 298 296 297 306 308 310 314 299 290 325 335 344 345 337 351 165 152 181 167 169 169 157 162 158 150 155 153 154 158 161 160 159 159 158 162 158 161 167 173 176 182 183 171 172 176 175 174 174 175 177 180 178 179 180 174 175 184 183
106 249 203 171 273 295 278 276 296 240 279 282 253 243 231 185 205 206 228 198 193 234 249 281 296 284 276 277 279 279 293 295 297 299 301 314 309 316 329 327 340 329 323 324 185 167 171 174 162 160 148 153 158 151 154 153 160 163 161 161 160 159 161 156 168 172 177 183 185 181 176 169 169 177 176 177 182 183 182 181 181 177 177 182 184 180
129 272 118 164 352 282 293 5 67 171 191 262 259 248 232 216 221 223 250 239 219 283 267 268 277 279 275 252 252 267 276 279 297 316 325 306 323 331 327 321 322 326 320 330 311 177 180 170 173 159 166 170 168 170 168 167 164 164 163 159 158 160 158 162 170 180 182 188 183 179 172 174 179 177 183 183 183 183 180 180 178 182 187 184 179 179
99 250 55 87 327 296 318 62 281 317 252 253 278 270 226 172 209 201 201 208 162 224 243 85 264 258 265 255 257 260 271 309 324 320 324 329 334 345 340 325 317 316 315 323 325 272 169 173 173 175 181 178 174 175 173 168 165 159 163 156 162 161 161 172 179 180 178 177 167 172 177 179 175 176 182 178 186 181 179 173 178 185 185 182 181 186
183 142 162 149 214 258 260 85 312 305 305 296 266 241 192 189 172 281 270 184 209 143 136 187 230 217 231 34 340 308 342 325 334 326 322 321 324 344 334 318 308 294 303 312 307 321 273 192 185 184 184 183 183 178 180 166 160 172 168 169 171 153 165 173 174 176 170 167 165 174 173 170 169 177 179 183 180 180 175 174 180 185 184 196 193 179
131 139 153 168 197 255 283 308 255 359 303 243 240 169 145 174 191 192 222 206 206 177 211 194 238 278 301 289 246 271 303 303 306 283 254 247 291 317 324 322 310 303 297 295 292 287 294 258 189 192 187 188 188 185 171 169 173 177 168 158 148 155 163 167 174 173 171 169 173 174 171 169 175 180 185 180 177 176 179 181 191 188 189 186 179 190
159 125 162 140 167 273 316 341 340 272 248 240 219 197 187 141 171 197 236 237 203 213 243 277 271 265 251 242 235 248 254 272 290 275 304 257 220 244 275 303 307 315 303 297 302 307 313 311 234 175 182 190 184 172 154 166 165 152 152 157 155 162 162 168 167 177 170 175 180 173 174 174 179 184 183 182 181 183 189 191 186 186 190 188 193 196
161 144 164 113 155 0 42 91 104 241 238 275 262 176 202 128 155 149 284 257 226 204 205 228 245 252 260 267 262 245 252 272 290 261 226 265 206 232 260 275 283 292 292 289 298 298 312 321 327 278 226 194 160 168 165 171 160 163 173 160 163 167 169 169 175 183 177 179 183 182 183 181 183 187 183 182 184 188 195 194 192 194 189 190 200 205
153 95 129 193 168 207 204 165 240 317 316 308 16 180 176 181 170 169 218 279 216 191 182 212 235 247 261 263 254 270 271 289 55 31 244 219 253 224 218 244 237 252 258 271 259 280 292 301 295 302 321 265 187 165 176 161 167 165 160 165 172 172 175 175 182 187 185 187 187 188 186 186 186 187 187 183 187 196 198 196 197 198 179 191 200 200
158 157 225 147 257 121 162 306 334 350 279 282 248 294 247 230 135 171 110 285 260 210 190 191 216 229 235 258 265 247 137 78 69 273 272 260 231 265 271 246 249 239 240 258 288 275 279 282 284 293 310 268 207 203 151 157 160 159 166 175 172 173 175 183 193 190 190 193 191 190 188 188 188 189 189 188 199 202 203 201 198 195 183 193 195 206
34 83 137 152 185 74 109 172 213 196 247 206 269 304 149 173 156 171 59 295 269 187 182 182 209 219 201 204 237 82 85 122 229 247 260 255 278 203 248 272 260 252 238 230 231 257 269 285 301 310 322 300 230 218 168 158 160 160 172 173 176 179 183 193 196 192 193 197 191 190 188 188 189 190 188 197 207 203 200 199 200 194 184 201 199 210
75 359 61 89 183 195 138 159 240 205 242 281 229 242 212 182 141 63 348 283 256 178 178 175 206 209 216 212 158 119 143 162 212 245 228 217 244 238 181 258 317 323 313 283 259 231 246 292 339 300 278 265 277 24 266 175 172 180 179 188 177 187 198 201 202 198 195 191 187 185 185 186 188 191 191 202 207 202 207 197 180 182 191 201 201 206
160 175 148 214 175 198 189 258 333 287 262 233 218 202 217 203 101 70 229 230 214 170 179 183 206 213 177 167 173 183 230 185 187 187 217 272 260 262 249 213 216 213 253 287 292 286 225 216 187 249 267 285 310 318 282 181 171 191 196 175 191 209 214 212 196 187 190 183 183 187 192 193 193 196 202 202 204 200 195 185 192 191 190 199 202 205
349 89 337 67 198 194 188 193 237 270 248 185 250 156 189 119 218 205 230 222 149 172 181 183 202 215 178 180 190 209 232 241 256 292 255 245 255 253 261 269 301 276 202 202 228 249 246 198 192 230 277 266 306 350 329 223 186 200 185 180 205 219 217 181 188 186 178 181 189 191 192 194 203 202 204 206 195 189 203 205 198 195 196 197 195 205
178 150 196 180 176 64 85 137 347 275 284 142 123 86 279 163 238 203 167 276 215 157 159 195 199 220 170 225 227 231 272 296 280 270 253 245 238 255 245 240 264 284 302 355 43 180 177 235 268 246 230 243 226 114 148 315 235 208 195 211 235 273 195 193 179 184 185 189 194 196 198 198 198 203 201 205 199 199 212 198 196 204 193 195 204 213
182 129 196 223 182 152 159 171 200 216 159 160 147 178 201 214 192 179 138 165 239 165 167 173 210 200 190 203 225 246 249 270 301 271 277 272 247 259 271 263 242 261 277 256 228 235 157 256 250 246 249 205 177 156 158 169 201 219 212 227 87 46 68 101 104 117 145 176 203 190 208 201 206 210 207 202 194 203 212 204 201 201 199 200 206 217
198 199 167 176 193 162 188 204 224 205 183 193 198 210 212 205 162 186 154 172 170 224 192 160 202 193 188 194 214 221 261 230 229 251 229 239 216 214 221 227 213 212 224 262 288 317 185 210 236 248 296 249 167 173 166 170 183 212 230 241 18 286 207 147 136 146 159 166 169 168 167 160 173 186 194 196 183 197 205 210 184 200 198 194 211 219
269 200 133 94 222 262 296 232 299 315 232 232 242 218 196 255 224 137 170 182 245 183 174 182 192 179 181 179 180 235 220 244 233 258 256 276 274 263 250 266 264 234 214 233 282 266 225 278 321 299 260 256 207 174 174 175 176 187 229 183 217 240 211 176 162 166 171 159 152 152 142 151 163 167 175 181 180 194 197 195 192 200 201 195 210 212
228 139 148 204 191 130 251 220 206 228 214 210 220 237 228 221 215 198 213 229 234 186 199 235 171 171 169 164 185 204 227 224 237 253 251 277 279 272 252 226 221 194 183 184 191 139 125 130 277 278 301 302 317 290 238 199 201 204 187 186 186 193 201 185 186 192 195 203 203 196 185 197 204 193 187 184 182 188 188 188 185 193 205 200 206 213
261 178 174 203 161 185 227 233 235 252 246 218 216 224 233 231 230 216 219 219 225 235 208 196 151 125 143 168 191 187 219 196 199 243 243 238 247 264 274 265 238 202 217 206 181 168 145 156 187 232 249 270 268 249 217 249 247 272 257 166 143 138 170 188 198 206 220 226 232 233 228 229 221 214 217 207 198 199 201 200 195 200 207 204 205 208
159 134 217 164 194 233 293 278 250 295 267 232 228 235 230 218 213 224 221 230 236 241 237 208 211 182 178 197 175 183 197 215 202 214 225 236 237 252 255 252 257 247 187 181 189 172 182 183 189 204 196 233 227 203 192 215 230 228 214 191 153 152 156 168 182 193 205 198 190 220 226 243 276 275 285 293 289 278 256 235 225 230 251 244 225 215
111 191 167 137 220 221 202 213 166 202 245 228 214 218 218 217 204 207 197 225 224 229 227 199 224 220 218 211 174 175 195 214 196 182 219 234 234 240 255 268 269 265 264 258 180 178 177 190 196 202 213 237 219 203 213 229 231 227 213 190 178 170 177 183 176 189 208 200 201 197 197 203 204 201 200 205 212 223 238 226 216 211 214 233 216 218
183 185 152 195 189 218 214 219 190 214 234 222 209 212 209 197 180 187 196 208 217 217 207 194 205 212 230 233 198 190 208 207 199 164 195 232 243 239 237 248 265 269 270 232 167 214 207 214 199 204 233 245 209 206 213 229 235 225 214 193 192 188 194 171 185 211 218 196 215 204 205 207 214 220 223 226 229 230 247 273 262 247 247 245 244 232